This demonstration page uses our WeatherBlox Daily Observations layout. Learn more.

41.55636, -103.73856

Hourly Observations for August 7, 2019

Temp ( °F °C ) Dew Point ( °F °C ) Humidity (%) Winds ( mph kmh ) Pressure ( in mb ) Visibility ( mi km ) Precip ( " mm )
12:58 am 00:58 Partly Cloudy 85 29.7 52 11.2 32 32 S 8 13 29.85 1011 10 16.0934 N/A
1:58 am 01:58 Clear 78 25.8 47 8.5 33 33 ENE 12 19 29.88 1012 10 16.0934 N/A
2:58 am 02:58 Clear 73 23 49 9.7 43 43 ESE 8 13 29.88 1012 10 16.0934 N/A
3:58 am 03:58 Clear 73 22.6 52 10.9 48 48 SSE 9 15 29.89 1012 10 16.0934 N/A
4:58 am 04:58 Clear 74 23.3 54 12.2 50 50 Calm 29.87 1012 10 16.0934 N/A
5:58 am 05:58 Clear 72 22.1 56 13.2 57 57 WSW 6 9 29.88 1012 10 16.0934 N/A
6:58 am 06:58 Mostly Clear 70 21.1 55 12.9 60 60 WNW 5 7 29.87 1012 10 16.0934 N/A
7:58 am 07:58 Mostly Cloudy with Nearby Thunderstorms 68 20.1 57 13.8 67 67 NW 6 9 29.88 1012 10 16.0934 N/A
8:58 am 08:58 Mostly Cloudy 65 18.1 56 13.5 75 75 E 13 20 29.89 1012 10 16.0934 0.08 2.032
9:58 am 09:58 Mostly Cloudy 63 17.4 55 13 76 76 ESE 10 17 29.88 1012 10 16.0934 0 0
10:58 am 10:58 Mostly Cloudy 62 16.8 56 13.3 80 80 SSW 3 6 29.89 1012 10 16.0934 0 0
11:58 am 11:58 Mostly Cloudy 62 16.5 56 13.4 82 82 W 6 9 29.91 1013 10 16.0934 0 0
12:58 pm 12:58 Sunny 61 16.3 56 13.4 83 83 WNW 6 9 29.93 1014 10 16.0934 0 0
1:58 pm 13:58 Sunny 65 18.4 57 14.1 76 76 WNW 6 9 29.95 1014 10 16.0934 0 0
2:58 pm 14:58 Sunny 71 21.9 55 12.6 56 56 NNW 6 9 29.94 1014 10 16.0934 0 0
4:58 pm 16:58 Sunny 77 24.9 52 11.2 42 42 Calm 29.94 1014 8 12.87472 0 0
5:58 pm 17:58 Sunny 83 28.1 52 11.2 35 35 S 8 13 29.93 1014 10 16.0934 0 0
6:58 pm 18:58 Sunny 85 29.2 52 11.3 33 33 S 7 11 29.91 1013 10 16.0934 0 0
7:58 pm 19:58 Sunny 86 29.9 53 11.7 33 33 SSE 8 13 29.89 1012 10 16.0934 0 0
8:58 pm 20:58 Sunny 86 30.2 52 11 30 30 SE 12 19 29.88 1012 10 16.0934 0 0
9:58 pm 21:58 Sunny 87 30.5 53 11.5 31 31 SE 10 17 29.87 1012 10 16.0934 0 0
10:58 pm 22:58 Mostly Cloudy with Nearby Thunderstorms 81 27.1 56 13.4 43 43 S 9 15 29.9 1012 10 16.0934 0 0
11:58 pm 23:58 Cloudy with Thunderstorms 65 18.1 54 12.1 68 68 N 31 50 30 1016 8 12.87472 0.03 0.762

Powered by AerisWeather